Regional Weather Roundup
Issued by NWS

Home | Current Version | Previous Version | Text Only | Print | Product List | Glossary On
Versions: 1 2 3 4 5 6 7 8 9 10 11 12 13 14 15 16 17 18 19 20 21 22 23 24 25 26 27 28 29 30 31 32 33 34 35 36 37 38 39 40 41 42 43 44 45 46 47 48 49 50
067
ASUS46 KSTO 302309
RWRCA

NORTHERN AND CENTRAL CA REGIONAL WEATHER ROUNDUP
NATIONAL WEATHER SERVICE SACRAMENTO CA
400 PM PDT THU MAR 30 2017

NOTE: FAIR INDICATES FEW OR NO CLOUDS BELOW 12,000 FEET WITH NO
SIGNIFICANT WEATHER AND/OR OBSTRUCTIONS TO VISIBILITY.

CAZ001-003-310000-
NORTHWEST AREA

CITY           SKY/WX    TMP DP  RH WIND       PRES   REMARKS
CRESCENT CITY  SUNNY     54  45  71 NW24G38   30.27S
ARCATA         NOT AVBL
SHELTER COVE   NOT AVBL
UKIAH          SUNNY     65  30  27 NW10G23   30.06F
$$

CAZ006-505>513-310000-
BAY AREA

CITY           SKY/WX    TMP DP  RH WIND       PRES   REMARKS
SANTA ROSA     MOSUNNY   68  36  30 NW10      30.02F
SAN RAFAEL     N/A       61  MM  MM MISG
NAPA           MOSUNNY   68  48  48 W16       30.03F
CONCORD        SUNNY     67  40  37 NW7       30.04F
OAKLAND CITY   N/A      MM  MM  MM MISG
OAKLAND        MOSUNNY   65  47  52 W21       30.05F
SAN FRAN CITY  N/A       59  MM  59 MISG
SAN FRAN ARPT  MOSUNNY   60  44  55 W29G35    30.07F
LIVERMORE      MOSUNNY   66  37  34 NW10      30.02F
HAYWARD        MOSUNNY   63  45  51 W21G29    30.05F
REDWOOD CITY   N/A       MM  MM  MM MISG
MOFFETT ARPT   SUNNY     65  43  44 NW14G21   30.05F
SAN JOSE ARPT  MOSUNNY   65  42  43 NW18G25   30.04F
$$
CAZ034-037-514>518-310000-
CENTRAL COAST

CITY           SKY/WX    TMP DP  RH WIND       PRES   REMARKS
WATSONVILLE    SUNNY     68  36  30 N7G17     30.03F
SALINAS        SUNNY     64  45  49 W22       30.01F
MONTEREY       SUNNY     57  47  69 W23G33    30.06F
PT PIEDRAS BLS NOT AVBL
SAN LUIS OBISP SUNNY     63  46  54 NW14G25   29.98F
SANTA MARIA    SUNNY     61  48  62 NW23G33   29.97S
$$
CAZ015-016-310000-
NORTHERN SACRAMENTO VALLEY

CITY           SKY/WX    TMP DP  RH WIND       PRES   REMARKS
REDDING        SUNNY     64  28  25 N17G26    30.07F
RED BLUFF      SUNNY     66  29  24 N17G28    30.06F
OROVILLE       SUNNY     66  33  29 NW15G24   30.03F
$$
CAZ016>018-310000-
SOUTHERN SACRAMENTO VALLEY

CITY           SKY/WX    TMP DP  RH WIND       PRES   REMARKS
AUBURN         PTSUNNY   61  34  36 NW12G20   30.00F
BEALE AFB      SUNNY     66  35  32 NW25G35   29.99F
LINCOLN        FAIR      66  32  28 NW22G29   29.99F
MARYSVILLE     SUNNY     66  33  29 NW21G35   30.02F
SAC INTL ARPT  MOSUNNY   66  34  30 N21G29    30.01F
MATHER AIRPORT MOSUNNY   66  32  28 NW22G32   30.00F
DOWNTOWN SAC   N/A       66  MM  MM MISG
SAC EXEC ARPT  SUNNY     66  34  30 NW21G32   30.01F
VACAVILLE      SUNNY     68  34  28 NW18G24   30.04F
TRAVIS AFB     SUNNY     66  37  34 N15G22    30.01F
$$
CAZ019>021-310000-
SAN JOAQUIN VALLEY

CITY           SKY/WX    TMP DP  RH WIND       PRES   REMARKS
STOCKTON       SUNNY     68  36  30 NW23G35   29.99F
MODESTO        SUNNY     67  34  29 NW18G33   29.98F
MERCED         SUNNY     66  35  31 NW20G26   29.95F
LEMOORE        MOSUNNY   68  26  20 NW29G38   29.94F
FRESNO         MOSUNNY   65  34  31 NW29G40   29.91F
HANFORD        SUNNY     67  35  30 NW26G36   29.92F
PORTERVILLE    SUNNY     67  38  34 NW23      29.91F
BAKERSFIELD    SUNNY     70  35  27 NW29G37   29.90F
$$
CAZ011-012-071-310000-
NORTHERN MOUNTAINS

CITY           SKY/WX    TMP DP  RH WIND       PRES   REMARKS
YREKA          MOSUNNY   49  33  54 N23       30.18S
MOUNT SHASTA   CLOUDY    47  29  49 N10G18    30.13F
ALTURAS        LGT SNOW  39  32  76 NW18G25   30.03F VSB 1   WCI  30
$$
CAZ011-012-071-310000-
SIERRA NEVADA MTNS

CITY           SKY/WX    TMP DP  RH WIND       PRES   REMARKS
BLUE CANYON    PTSUNNY   41  20  43 NW13G20   30.00F
TRUCKEE        PTSUNNY   37  19  48 N16G28    29.98F WCI  28
TAHOE VLY ARPT PTSUNNY   37  18  46 N10G23    29.96F WCI  30
MAMMOTH LAKES  PTSUNNY   36  19  48 N24G33    29.87R WCI  24
$$




USA.gov is the U.S. government's official web portal to all federal, state and local government web resources and services.